Weather Roundup
Issued by NWS

Home | Current Version | Previous Version | Graphics & Text | Print | Product List | Glossary Off
Versions: 1 2 3 4 5 6 7 8 9 10 11 12 13 14 15 16 17 18 19 20 21 22 23 24 25 26 27 28 29 30 31 32 33 34 35 36 37 38 39 40 41 42 43 44 45 46 47 48 49 50

000
NZUS93 KARX 312359
HRRWXR

CURRENT HOURLY OBSERVATIONS ACROSS
MUCH OF THE UPPER MISSISSIPPI VALLEY
NATIONAL WEATHER SERVICE LA CROSSE WI
700 PM CDT MON AUG 31 2015


...SOUTHEAST MINNESOTA...


CITY           SKY/WX    TMP DP  RH WIND       PRES   REMARKS
ROCHESTER      CLEAR     79  72  79 S9        29.95S
ROCHESTER/MAYO FAIR      81  72  74 SE7       29.94S
WINONA         CLEAR     81  70  69 CALM      29.93F
AUSTIN         CLEAR     81  72  74 S5        29.94S
ALBERT LEA     CLEAR     81  70  69 S7        29.93S
DODGE CENTER   CLEAR     79  72  78 S8        29.94S
PRESTON        CLEAR     78  71  78 S7        29.96S
OWATONNA       CLEAR     81  70  69 S7        29.92S
FARIBAULT      CLEAR     81  72  74 S5        29.91S
$$

...ELSEWHERE IN MINNESOTA...


CITY           SKY/WX    TMP DP  RH WIND       PRES   REMARKS
MINNEAPOLIS    PTCLDY    83  69  62 S12       29.89R
INTNL FALLS    MOCLDY    72  66  81 W7        29.80R
DULUTH         PTCLDY    77  68  73 SW12      29.87R
RED WING       CLEAR     82  70  65 S5        29.90R
REDWOOD FALLS  CLEAR     80  67  64 S9        29.88R
MANKATO        CLEAR     81  70  69 S9        29.90S
WORTHINGTON    CLEAR     77  66  69 S9        29.92R
FAIRMONT       CLEAR     81  66  61 S7        29.91S
$$

...SOUTHWEST WISCONSIN...


CITY           SKY/WX    TMP DP  RH WIND       PRES   REMARKS
LA CROSSE      CLEAR     81  70  69 SE9       29.93F
PRAIRIE DU CHI CLEAR     82  69  65 SE5       29.96S
BOSCOBEL       CLEAR     82  71  69 CALM      29.97S
LONE ROCK      NOT AVBL
PLATTEVILLE    CLEAR     80  73  79 SE5       30.00S
FORT MC COY    CLEAR     80  67  64 SE6       29.97F
VIROQUA          N/A     78  70  75 S6        29.99F
WIS DELLS      CLEAR     79  66  65 SW6       30.00S
$$

...ELSEWHERE IN WISCONSIN...


CITY           SKY/WX    TMP DP  RH WIND       PRES   REMARKS
MILWAUKEE      MOCLDY    72  65  78 SE3       30.01S
MADISON        CLEAR     79  68  69 S3        30.00S
GREEN BAY      CLEAR     74  69  85 S5        29.98F
EAU CLAIRE     NOT AVBL
BLACK RVR FLS  FAIR      80  69  67 S5        29.96S
MEDFORD        CLEAR     73  70  90 S6        29.99F
WAUSAU         CLEAR     75  68  78 CALM      29.98S
WIS RAPIDS     CLEAR     77  68  73 S5        29.99F
MARSHFIELD     CLEAR     76  67  73 S8        29.98F
RICE LAKE      PTCLDY    78  71  78 SE7       29.94R
$$

...NORTHEAST IOWA...


CITY           SKY/WX    TMP DP  RH WIND       PRES   REMARKS
DECORAH        CLEAR     81  73  78 S7        29.96F
MASON CITY     CLEAR     79  73  82 S7        29.95S
CHARLES CITY   CLEAR     81  75  83 S8        29.95S
OELWEIN        CLEAR     81  73  78 S7        29.97S
$$

...ELSEWHERE IN IOWA...


CITY           SKY/WX    TMP DP  RH WIND       PRES   REMARKS
DES MOINES     PTCLDY    84  72  67 S6        29.92F
IOWA CITY      CLEAR     83  73  72 SE6       29.96F
FORT DODGE     CLEAR     79  68  69 S6        29.94S
$$

...NORTHERN ILLINOIS...


CITY           SKY/WX    TMP DP  RH WIND       PRES   REMARKS
CHICAGO-OHARE  PTCLDY    82  68  62 CALM      30.01S
CHICAGO-MIDWAY PTCLDY    83  68  60 E5        30.00F
MOLINE         CLEAR     84  73  69 SE3       29.97F HX  90
ROCKFORD       CLEAR     81  70  69 S3        30.02S
PEORIA         PTCLDY    85  68  56 S5        30.00S
$$

NOTE: "FAIR" INDICATES FEW OR NO CLOUDS BELOW 12,000 FEET WITH NO
SIGNIFICANT WEATHER AND/OR OBSTRUCTIONS TO VISIBILITY. WIND
SPEEDS ARE IN MILES-PER-HOUR.



USA.gov is the U.S. government's official web portal to all federal, state and local government web resources and services.